TimeEET,TemperatureF,Dew PointF,Humidity,Sea Level PressureIn,VisibilityMPH,Wind Direction,Wind SpeedMPH,Gust SpeedMPH,PrecipitationIn,Events,Conditions,WindDirDegrees,DateUTC
12:20 AM,53.6,39.2,58,29.98,6.2,WNW,24.2,-,N/A,,Scattered Clouds,300,2013-03-16 22:20:00
12:50 AM,53.6,39.2,58,30.01,6.2,West,24.2,-,N/A,,Scattered Clouds,280,2013-03-16 22:50:00
1:20 AM,53.6,39.2,58,30.01,6.2,WNW,23.0,-,N/A,,Scattered Clouds,300,2013-03-16 23:20:00
1:50 AM,53.6,37.4,54,30.01,6.2,WNW,23.0,-,N/A,,Scattered Clouds,300,2013-03-16 23:50:00
2:00 AM,53,37,43,30.03,9,WNW,23.0,,,,Partly Cloudy,300,2013-03-17 00:00:00
2:20 AM,53.6,37.4,54,30.01,6.2,WNW,24.2,-,N/A,,Scattered Clouds,290,2013-03-17 00:20:00
2:50 AM,53.6,37.4,54,30.01,6.2,WNW,24.2,-,N/A,,Scattered Clouds,290,2013-03-17 00:50:00
3:50 AM,53.6,37.4,54,30.01,6.2,WNW,24.2,-,N/A,,Scattered Clouds,290,2013-03-17 01:50:00
4:50 AM,51.8,37.4,58,30.04,6.2,WNW,19.6,-,N/A,,Partly Cloudy,300,2013-03-17 02:50:00
5:20 AM,51.8,37.4,58,30.01,6.2,WNW,20.7,-,N/A,,Partly Cloudy,300,2013-03-17 03:20:00
5:50 AM,51.8,37.4,58,30.01,6.2,WNW,18.4,-,N/A,,Partly Cloudy,300,2013-03-17 03:50:00
6:50 AM,51.8,37.4,58,30.04,6.2,West,12.7,-,N/A,,Mostly Cloudy,270,2013-03-17 04:50:00
7:20 AM,51.8,37.4,58,30.04,6.2,West,11.5,-,N/A,,Mostly Cloudy,270,2013-03-17 05:20:00
7:50 AM,50.0,37.4,62,30.06,6.2,WNW,15.0,-,N/A,Rain,Light Rain,290,2013-03-17 05:50:00
8:00 AM,50,38,53,30.06,6,WNW,15.0,,,Rain,Light Rain,290,2013-03-17 06:00:00
8:20 AM,50.0,37.4,62,30.06,6.2,West,6.9,-,N/A,,Mostly Cloudy,260,2013-03-17 06:20:00
8:50 AM,51.8,39.2,62,30.09,6.2,WNW,18.4,-,N/A,,Mostly Cloudy,300,2013-03-17 06:50:00
9:20 AM,51.8,39.2,62,30.09,6.2,WNW,13.8,-,N/A,,Mostly Cloudy,300,2013-03-17 07:20:00
9:50 AM,51.8,42.8,71,30.06,6.2,WSW,4.6,-,N/A,,Mostly Cloudy,250,2013-03-17 07:50:00
10:20 AM,51.8,42.8,71,30.09,6.2,NW,3.5,-,N/A,,Mostly Cloudy,310,2013-03-17 08:20:00
10:50 AM,51.8,41.0,67,30.09,6.2,NW,12.7,-,N/A,,Scattered Clouds,310,2013-03-17 08:50:00
11:20 AM,53.6,41.0,62,30.09,6.2,WNW,17.3,-,N/A,,Scattered Clouds,300,2013-03-17 09:20:00
11:50 AM,55.4,42.8,63,30.09,6.2,WNW,18.4,-,N/A,,Scattered Clouds,300,2013-03-17 09:50:00
12:20 PM,55.4,42.8,63,30.09,6.2,NW,15.0,-,N/A,,Scattered Clouds,320,2013-03-17 10:20:00
12:50 PM,57.2,42.8,59,30.09,6.2,NW,18.4,-,N/A,,Scattered Clouds,310,2013-03-17 10:50:00
1:20 PM,57.2,42.8,59,30.09,6.2,NW,16.1,-,N/A,,Scattered Clouds,310,2013-03-17 11:20:00
1:50 PM,55.4,42.8,63,30.09,6.2,NW,16.1,-,N/A,,Scattered Clouds,310,2013-03-17 11:50:00
2:00 PM,56,44,53,30.10,6,NW,16.1,,,,,310,2013-03-17 12:00:00
2:20 PM,55.4,42.8,63,30.09,6.2,NW,15.0,-,N/A,,Scattered Clouds,310,2013-03-17 12:20:00
2:50 PM,57.2,44.6,63,30.09,6.2,NW,16.1,-,N/A,,Scattered Clouds,320,2013-03-17 12:50:00
3:20 PM,57.2,44.6,63,30.09,6.2,NW,13.8,-,N/A,,Scattered Clouds,320,2013-03-17 13:20:00
3:50 PM,57.2,41.0,55,30.09,6.2,NW,13.8,-,N/A,,Scattered Clouds,310,2013-03-17 13:50:00
4:20 PM,57.2,41.0,55,30.09,6.2,NW,15.0,-,N/A,,Scattered Clouds,320,2013-03-17 14:20:00
4:50 PM,57.2,42.8,59,30.09,6.2,NNW,13.8,-,N/A,,Scattered Clouds,330,2013-03-17 14:50:00
5:20 PM,57.2,42.8,59,30.09,6.2,NW,11.5,-,N/A,,Scattered Clouds,320,2013-03-17 15:20:00
5:50 PM,55.4,42.8,63,30.09,6.2,NW,9.2,-,N/A,,Scattered Clouds,320,2013-03-17 15:50:00
6:20 PM,55.4,42.8,63,30.09,6.2,NW,8.1,-,N/A,,Scattered Clouds,310,2013-03-17 16:20:00
6:50 PM,53.6,42.8,67,30.12,6.2,NW,8.1,-,N/A,,Mostly Cloudy,310,2013-03-17 16:50:00
7:20 PM,53.6,42.8,67,30.12,6.2,WNW,10.4,-,N/A,,Mostly Cloudy,300,2013-03-17 17:20:00
7:50 PM,53.6,41.0,62,30.15,6.2,WNW,10.4,-,N/A,,Mostly Cloudy,300,2013-03-17 17:50:00
8:00 PM,53,41,52,30.15,6,WNW,10.4,,,,Mostly Cloudy,300,2013-03-17 18:00:00
8:20 PM,53.6,41.0,62,30.15,6.2,WSW,10.4,-,N/A,,Mostly Cloudy,250,2013-03-17 18:20:00
8:50 PM,51.8,41.0,67,30.15,6.2,WSW,5.8,-,N/A,,Scattered Clouds,240,2013-03-17 18:50:00
9:20 PM,51.8,41.0,67,30.15,6.2,SW,5.8,-,N/A,,Scattered Clouds,230,2013-03-17 19:20:00
9:50 PM,48.2,41.0,76,30.15,6.2,WSW,5.8,-,N/A,,Partly Cloudy,240,2013-03-17 19:50:00
10:20 PM,48.2,41.0,76,30.15,6.2,WSW,3.5,-,N/A,,Partly Cloudy,240,2013-03-17 20:20:00
10:50 PM,48.2,39.2,71,30.15,6.2,WSW,4.6,-,N/A,,Partly Cloudy,240,2013-03-17 20:50:00
11:20 PM,48.2,39.2,71,30.15,6.2,South,4.6,-,N/A,,Partly Cloudy,180,2013-03-17 21:20:00
11:50 PM,46.4,37.4,71,30.18,6.2,South,5.8,-,N/A,,Partly Cloudy,170,2013-03-17 21:50:00